Weather History for Oelwein, IA

Change the Weather History Date:

Sunday, January 20, 2013

  Actual Average Record
Temperature  
Mean Temperature 10 °F -  
Max Temperature 15 °F 25 °F 46 °F (1968)
Min Temperature 6 °F 8 °F -24 °F (1985)
Degree Days  
Heating Degree Days 54    
Moisture  
Dew Point 2 °F    
Average Humidity 69    
Maximum Humidity 85    
Minimum Humidity 57    
Precipitation  
Precipitation 0.00 in - - ()
Sea Level Pressure  
Sea Level Pressure 30.28 in    
Wind  
Wind Speed 14 mph (WNW)    
Max Wind Speed 22 mph    
Max Gust Speed 31 mph    
Visibility 10 miles    
Events Snow    
Averages and records for this station are not official NWS values.
T = Trace of Precipitation, MM = Missing Value Source: NWS Daily Summary

Daily Weather History Graph

Daily Weather History Graph

Search for Another Location

Airport:

Trip Planner

Search our weather history database for the weather conditions in past years. The results will help you decide how hot, cold, wet, or windy it might be!

Date:

Astronomy

Jan. 20, 2013 Rise Set
Actual Time 7:32 AM CST 5:06 PM CST
Civil Twilight 7:01 AM CST 5:36 PM CST
Nautical Twilight 6:26 AM CST 6:11 PM CST
Astronomical Twilight 5:53 AM CST 6:45 PM CST
Moon 12:07 PM CST (1/20) 2:04 AM CST (1/20)
Length of Visible Light 10h 35m
Length of Day
9h 33m
Waxing Gibbous, 66% of the Moon is Illuminated
Jan 20
Waxing Gibbous
Jan 26
Full
Feb 3
Last Quarter
Feb 10
New
Feb 17
First Quarter

Hourly Weather History & Observations

Time (CST) Temp. Windchill Dew Point Humidity Pressure Visibility Wind Dir Wind Speed Gust Speed Precip Events Conditions
12:15 AM 12.2 °F -6.7 °F 3.2 °F 67% 30.16 in 10.0 mi WNW 21.9 mph 25.3 mph N/A   Clear
12:35 AM 10.4 °F -9.1 °F 1.4 °F 67% 30.18 in 10.0 mi NW 21.9 mph 29.9 mph N/A   Clear
12:55 AM 10.4 °F -7.7 °F 1.4 °F 67% 30.19 in 10.0 mi NW 18.4 mph 29.9 mph N/A   Clear
1:15 AM 10.4 °F -9.1 °F 1.4 °F 67% 30.20 in 10.0 mi NW 21.9 mph 27.6 mph N/A   Clear
1:35 AM 10.4 °F -9.1 °F 1.4 °F 67% 30.21 in 10.0 mi NW 21.9 mph 31.1 mph N/A   Clear
1:55 AM 10.4 °F -8.2 °F 1.4 °F 67% 30.23 in 10.0 mi WNW 19.6 mph 23.0 mph N/A   Clear
2:15 AM 8.6 °F -10.0 °F 1.4 °F 73% 30.23 in 10.0 mi NW 18.4 mph 25.3 mph N/A   Clear
2:35 AM 8.6 °F -8.3 °F 1.4 °F 73% 30.25 in 10.0 mi NW 15.0 mph 23.0 mph N/A   Clear
2:55 AM 8.6 °F -8.3 °F 1.4 °F 73% 30.25 in 10.0 mi NW 15.0 mph 24.2 mph N/A   Clear
3:15 AM 8.6 °F -8.3 °F -0.4 °F 67% 30.26 in 10.0 mi NW 15.0 mph - N/A   Clear
3:35 AM 8.6 °F -8.3 °F -0.4 °F 67% 30.26 in 10.0 mi NW 15.0 mph 20.7 mph N/A   Clear
3:55 AM 8.6 °F -7.0 °F 1.4 °F 73% 30.26 in 10.0 mi NW 12.7 mph - N/A   Clear
4:15 AM 8.6 °F -8.3 °F -0.4 °F 67% 30.27 in 10.0 mi NW 15.0 mph 18.4 mph N/A   Clear
4:35 AM 8.6 °F -9.5 °F -0.4 °F 67% 30.27 in 10.0 mi NW 17.3 mph - N/A   Clear
4:55 AM 6.8 °F -8.6 °F -0.4 °F 72% 30.28 in 10.0 mi NW 11.5 mph - N/A   Clear
5:15 AM 6.8 °F -11.8 °F -0.4 °F 72% 30.28 in 10.0 mi NW 17.3 mph - N/A   Clear
5:35 AM 6.8 °F -8.6 °F -0.4 °F 72% 30.28 in 10.0 mi NNW 11.5 mph - N/A   Clear
5:55 AM 6.8 °F -8.6 °F -0.4 °F 72% 30.28 in 10.0 mi NNW 11.5 mph - N/A   Clear
6:15 AM 6.8 °F -7.8 °F -0.4 °F 72% 30.29 in 10.0 mi NW 10.4 mph - N/A   Clear
6:35 AM 6.8 °F -7.8 °F -0.4 °F 72% 30.29 in 10.0 mi NW 10.4 mph 16.1 mph N/A   Clear
6:55 AM 6.8 °F -5.9 °F -0.4 °F 72% 30.29 in 10.0 mi NW 8.1 mph - N/A   Clear
7:15 AM 6.8 °F -8.6 °F -0.4 °F 72% 30.31 in 10.0 mi NW 11.5 mph - N/A   Clear
7:35 AM 6.8 °F -5.9 °F -0.4 °F 72% 30.31 in 10.0 mi NNW 8.1 mph - N/A   Clear
7:55 AM 6.8 °F -5.9 °F -0.4 °F 72% 30.30 in 10.0 mi NW 8.1 mph - N/A   Clear
8:15 AM 6.8 °F -6.9 °F -0.4 °F 72% 30.30 in 10.0 mi NW 9.2 mph - N/A   Clear
8:35 AM 8.6 °F -5.5 °F 1.4 °F 73% 30.31 in 10.0 mi NW 10.4 mph - N/A   Clear
8:55 AM 8.6 °F -6.3 °F 1.4 °F 73% 30.33 in 10.0 mi NW 11.5 mph - N/A   Clear
9:15 AM 8.6 °F -7.0 °F 1.4 °F 73% 30.34 in 10.0 mi WNW 12.7 mph - N/A   Clear
9:35 AM 8.6 °F -5.5 °F -0.4 °F 67% 30.34 in 10.0 mi WNW 10.4 mph - N/A   Clear
9:55 AM 10.4 °F -3.3 °F 1.4 °F 67% 30.34 in 10.0 mi WNW 10.4 mph - N/A   Clear
10:15 AM 10.4 °F -3.3 °F 1.4 °F 67% 30.35 in 10.0 mi NW 10.4 mph - N/A   Clear
10:35 AM 10.4 °F -2.4 °F 1.4 °F 67% 30.36 in 10.0 mi WNW 9.2 mph - N/A   Clear
10:55 AM 10.4 °F -0.4 °F 1.4 °F 67% 30.35 in 10.0 mi WNW 6.9 mph - N/A   Clear
11:15 AM 12.2 °F 1.7 °F 1.4 °F 62% 30.35 in 10.0 mi WNW 6.9 mph - N/A   Clear
11:35 AM 12.2 °F -0.2 °F 1.4 °F 62% 30.33 in 10.0 mi NW 9.2 mph - N/A   Clear
11:55 AM 12.2 °F 0.7 °F 1.4 °F 62% 30.32 in 10.0 mi WNW 8.1 mph - N/A   Clear
12:15 PM 14.0 °F 0.5 °F 1.4 °F 57% 30.33 in 10.0 mi West 11.5 mph - N/A   Clear
12:35 PM 14.0 °F -0.8 °F 1.4 °F 57% 30.32 in 10.0 mi NW 13.8 mph - N/A   Clear
12:55 PM 14.0 °F -0.2 °F 1.4 °F 57% 30.31 in 10.0 mi WNW 12.7 mph - N/A   Clear
1:15 PM 14.0 °F -0.2 °F 3.2 °F 62% 30.31 in 10.0 mi WNW 12.7 mph - N/A   Clear
1:35 PM 14.0 °F -1.4 °F 1.4 °F 57% 30.31 in 10.0 mi WNW 15.0 mph - N/A   Clear
1:55 PM 14.0 °F -0.2 °F 1.4 °F 57% 30.31 in 10.0 mi NW 12.7 mph 19.6 mph N/A   Clear
2:15 PM 14.0 °F -0.2 °F 1.4 °F 57% 30.31 in 10.0 mi WNW 12.7 mph 18.4 mph N/A   Clear
2:35 PM 14.0 °F 1.2 °F 1.4 °F 57% 30.30 in 10.0 mi WNW 10.4 mph - N/A   Clear
2:55 PM 15.8 °F 1.4 °F 3.2 °F 58% 30.30 in 10.0 mi WNW 13.8 mph - N/A   Clear
3:15 PM 15.8 °F 3.4 °F 3.2 °F 58% 30.29 in 10.0 mi WNW 10.4 mph - N/A   Clear
3:35 PM 14.0 °F 0.5 °F 3.2 °F 62% 30.29 in 10.0 mi West 11.5 mph 16.1 mph N/A   Clear
3:55 PM 14.0 °F -0.8 °F 3.2 °F 62% 30.29 in 10.0 mi West 13.8 mph 18.4 mph N/A   Clear
4:15 PM 14.0 °F -1.4 °F 3.2 °F 62% 30.29 in 10.0 mi WNW 15.0 mph - N/A   Clear
4:35 PM 14.0 °F 0.5 °F 3.2 °F 62% 30.28 in 10.0 mi WNW 11.5 mph - N/A   Clear
4:55 PM 14.0 °F 2.9 °F 3.2 °F 62% 30.28 in 10.0 mi West 8.1 mph - N/A   Clear
5:15 PM 14.0 °F 1.2 °F 5.0 °F 67% 30.28 in 10.0 mi WNW 10.4 mph - N/A   Clear
5:35 PM 14.0 °F 2.9 °F 5.0 °F 67% 30.28 in 10.0 mi West 8.1 mph - N/A   Clear
5:55 PM 12.2 °F -1.0 °F 5.0 °F 73% 30.28 in 10.0 mi WNW 10.4 mph - N/A   Clear
6:15 PM 12.2 °F 1.7 °F 3.2 °F 67% 30.27 in 10.0 mi WNW 6.9 mph - N/A   Clear
6:35 PM 12.2 °F 1.7 °F 5.0 °F 73% 30.28 in 10.0 mi West 6.9 mph - N/A   Clear
6:55 PM 10.4 °F 0.8 °F 5.0 °F 79% 30.26 in 10.0 mi West 5.8 mph - N/A   Clear
7:15 PM 10.4 °F 0.8 °F 5.0 °F 79% 30.26 in 10.0 mi West 5.8 mph - N/A   Clear
7:35 PM 10.4 °F -1.5 °F 5.0 °F 79% 30.27 in 10.0 mi West 8.1 mph - N/A   Clear
7:55 PM 10.4 °F 0.8 °F 5.0 °F 79% 30.26 in 10.0 mi West 5.8 mph - N/A   Clear
8:15 PM 10.4 °F -3.3 °F 5.0 °F 79% 30.26 in 10.0 mi West 10.4 mph - N/A   Clear
8:35 PM 12.2 °F -1.8 °F 5.0 °F 73% 30.26 in 10.0 mi West 11.5 mph - N/A   Clear
8:55 PM 12.2 °F -2.5 °F 5.0 °F 73% 30.25 in 10.0 mi West 12.7 mph - N/A   Clear
9:15 PM 12.2 °F -1.8 °F 5.0 °F 73% 30.24 in 10.0 mi WNW 11.5 mph - N/A   Clear
9:35 PM 12.2 °F -1.0 °F 5.0 °F 73% 30.24 in 10.0 mi WNW 10.4 mph - N/A   Clear
9:55 PM 12.2 °F -1.0 °F 5.0 °F 73% 30.23 in 10.0 mi West 10.4 mph - N/A   Scattered Clouds
10:15 PM 12.2 °F -1.0 °F 6.8 °F 79% 30.23 in 5.0 mi West 10.4 mph - N/A Snow Light Snow
10:35 PM 12.2 °F -1.0 °F 8.6 °F 85% 30.23 in 4.0 mi West 10.4 mph - N/A Snow Light Snow
10:55 PM 14.0 °F 0.5 °F 8.6 °F 79% 30.22 in 2.0 mi West 11.5 mph - N/A Snow Light Snow
11:15 PM 12.2 °F -1.8 °F 5.0 °F 73% 30.23 in 2.5 mi NW 11.5 mph 19.6 mph N/A Snow Light Snow
11:35 PM 10.4 °F -6.0 °F 3.2 °F 73% 30.23 in 10.0 mi NW 15.0 mph 21.9 mph N/A   Scattered Clouds
11:55 PM 8.6 °F -6.3 °F 1.4 °F 73% 30.23 in 10.0 mi WNW 11.5 mph - N/A   Clear